Location: ??? ?????
(30.6482°N, 60.5850°E)
Time: 05:38:44
(UTC+00:00)

CZ-2C R/B - Pass Details

Date: 09 April 2020
Orbit: 785 x 870 km, 98.3° (Epoch: 05 June)

Event Time Altitude Azimuth Distance (km) Brightness Sun altitude
Rises 15:57:56 0° 15° (NNE) 3,281 5.9 -20.6°
Reaches altitude 10° 16:00:16 10° 18° (NNE) 2,353 5.1 -21.1°
Maximum altitude 16:05:26 70° 101° (ESE) 847 2.4 -22.1°
Enters shadow 16:08:54 22° 181° (S) 1,706 4.1 -22.8°
